Precipitable_Water
0.13 0.14 0.15 0.14 0.13 0.14 0.14 0.14 0.12 0.13 0.14 0.17 0.19 0.21 0.22 0.24 0.25 0.27 0.29 0.29 0.27 0.27 0.27 0.28 0.30 0.32 0.34 0.35 0.36 0.34 0.32 0.29 0.28 0.28 0.29 0.29 0.29 0.30 0.29 0.28 0.27 0.27 0.27 0.26
0.10 0.14 0.13 0.11 0.13 0.12 0.14 0.14 0.14 0.15 0.14 0.19 0.20 0.21 0.20 0.21 0.24 0.26 0.30 0.30 0.30 0.30 0.29 0.29 0.29 0.30 0.31 0.33 0.34 0.34 0.32 0.30 0.28 0.28 0.27 0.28 0.28 0.29 0.28 0.27 0.26 0.26 0.25 0.25
0.07 0.10 0.12 0.08 0.10 0.11 0.11 0.14 0.14 0.11 0.15 0.18 0.17 0.17 0.17 0.19 0.24 0.27 0.29 0.30 0.31 0.32 0.32 0.30 0.30 0.28 0.26 0.30 0.34 0.34 0.32 0.30 0.28 0.27 0.27 0.28 0.28 0.28 0.28 0.27 0.26 0.25 0.24 0.24
0.07 0.07 0.05 0.10 0.13 0.12 0.11 0.13 0.15 0.15 0.15 0.16 0.16 0.18 0.17 0.20 0.20 0.22 0.24 0.25 0.26 0.29 0.31 0.32 0.32 0.32 0.31 0.28 0.28 0.29 0.29 0.28 0.26 0.26 0.27 0.28 0.28 0.28 0.28 0.28 0.26 0.24 0.22 0.23
0.05 0.05 0.08 0.09 0.11 0.11 0.10 0.08 0.14 0.14 0.14 0.15 0.17 0.17 0.15 0.18 0.19 0.20 0.21 0.24 0.25 0.27 0.29 0.31 0.32 0.33 0.32 0.30 0.28 0.26 0.25 0.26 0.25 0.25 0.26 0.27 0.27 0.27 0.28 0.29 0.26 0.25 0.23 0.22
0.05 0.04 0.04 0.09 0.11 0.13 0.12 0.06 0.14 0.13 0.12 0.13 0.13 0.09 0.10 0.16 0.18 0.19 0.20 0.22 0.22 0.25 0.27 0.29 0.31 0.34 0.33 0.30 0.29 0.28 0.26 0.24 0.24 0.24 0.25 0.25 0.26 0.26 0.28 0.29 0.26 0.25 0.23 0.22
0.06 0.06 0.08 0.11 0.12 0.14 0.07 0.08 0.13 0.15 0.14 0.14 0.12 0.14 0.14 0.17 0.18 0.19 0.20 0.20 0.22 0.23 0.24 0.27 0.30 0.31 0.30 0.30 0.28 0.29 0.28 0.26 0.24 0.24 0.24 0.24 0.24 0.26 0.28 0.27 0.25 0.24 0.23 0.22
0.08 0.07 0.06 0.13 0.13 0.10 0.13 0.16 0.16 0.17 0.17 0.15 0.15 0.15 0.17 0.18 0.19 0.19 0.18 0.20 0.21 0.21 0.22 0.24 0.27 0.29 0.28 0.28 0.30 0.32 0.28 0.27 0.24 0.25 0.24 0.24 0.23 0.25 0.27 0.26 0.24 0.23 0.23 0.21
0.10 0.09 0.12 0.14 0.15 0.18 0.19 0.17 0.16 0.15 0.15 0.15 0.16 0.17 0.19 0.19 0.20 0.19 0.19 0.20 0.22 0.22 0.22 0.24 0.26 0.28 0.27 0.28 0.31 0.32 0.28 0.28 0.26 0.24 0.23 0.23 0.24 0.24 0.24 0.25 0.24 0.23 0.23 0.21
0.12 0.13 0.14 0.15 0.18 0.19 0.19 0.16 0.14 0.13 0.14 0.17 0.16 0.17 0.19 0.19 0.19 0.19 0.20 0.21 0.22 0.23 0.23 0.23 0.25 0.27 0.29 0.31 0.31 0.29 0.27 0.28 0.24 0.23 0.23 0.23 0.24 0.24 0.22 0.23 0.24 0.24 0.22 0.21
0.13 0.14 0.16 0.17 0.17 0.18 0.17 0.12 0.11 0.12 0.13 0.16 0.17 0.17 0.18 0.18 0.19 0.20 0.20 0.21 0.23 0.23 0.23 0.24 0.25 0.26 0.29 0.31 0.29 0.27 0.27 0.26 0.23 0.23 0.24 0.23 0.25 0.23 0.22 0.24 0.25 0.24 0.23 0.22
0.11 0.17 0.17 0.15 0.17 0.16 0.11 0.09 0.10 0.10 0.10 0.12 0.15 0.17 0.18 0.18 0.19 0.20 0.20 0.23 0.23 0.23 0.22 0.23 0.24 0.25 0.28 0.29 0.29 0.27 0.26 0.24 0.23 0.23 0.23 0.25 0.24 0.23 0.24 0.25 0.25 0.25 0.25 0.24
0.18 0.21 0.19 0.18 0.16 0.12 0.08 0.08 0.09 0.09 0.09 0.10 0.12 0.14 0.17 0.18 0.19 0.21 0.21 0.22 0.22 0.22 0.23 0.23 0.24 0.25 0.27 0.28 0.28 0.25 0.23 0.23 0.23 0.24 0.24 0.25 0.23 0.22 0.21 0.22 0.23 0.23 0.24 0.23
0.22 0.21 0.16 0.15 0.10 0.08 0.08 0.09 0.09 0.09 0.09 0.10 0.11 0.12 0.14 0.17 0.19 0.19 0.20 0.22 0.22 0.23 0.23 0.24 0.24 0.25 0.27 0.28 0.27 0.24 0.23 0.24 0.25 0.25 0.26 0.24 0.24 0.22 0.21 0.21 0.20 0.20 0.22 0.21
0.20 0.20 0.16 0.12 0.08 0.08 0.08 0.08 0.07 0.07 0.08 0.09 0.10 0.11 0.12 0.13 0.16 0.19 0.21 0.22 0.22 0.22 0.23 0.23 0.24 0.24 0.27 0.27 0.26 0.25 0.26 0.26 0.27 0.27 0.26 0.25 0.24 0.22 0.22 0.22 0.21 0.20 0.21 0.20
0.20 0.18 0.12 0.07 0.07 0.07 0.08 0.08 0.07 0.08 0.08 0.09 0.09 0.10 0.11 0.13 0.14 0.17 0.20 0.21 0.20 0.20 0.21 0.22 0.23 0.24 0.26 0.26 0.26 0.26 0.26 0.27 0.26 0.26 0.26 0.25 0.23 0.22 0.21 0.21 0.20 0.20 0.20 0.19
0.17 0.12 0.07 0.06 0.07 0.08 0.08 0.08 0.09 0.09 0.09 0.09 0.09 0.10 0.11 0.12 0.12 0.14 0.17 0.20 0.20 0.21 0.21 0.22 0.22 0.24 0.25 0.25 0.25 0.25 0.25 0.26 0.26 0.25 0.25 0.24 0.23 0.22 0.21 0.20 0.19 0.18 0.18 0.20
0.17 0.10 0.08 0.08 0.08 0.08 0.08 0.09 0.09 0.09 0.09 0.10 0.10 0.10 0.10 0.11 0.11 0.12 0.14 0.17 0.19 0.20 0.21 0.22 0.23 0.23 0.24 0.24 0.24 0.24 0.24 0.24 0.24 0.24 0.24 0.23 0.22 0.21 0.20 0.19 0.19 0.17 0.17 0.18
0.14 0.08 0.07 0.08 0.09 0.09 0.09 0.09 0.09 0.09 0.10 0.10 0.10 0.10 0.10 0.11 0.12 0.13 0.14 0.14 0.16 0.17 0.19 0.21 0.22 0.22 0.23 0.24 0.24 0.24 0.23 0.23 0.23 0.23 0.23 0.23 0.22 0.21 0.20 0.19 0.18 0.18 0.16 0.16
0.11 0.07 0.08 0.08 0.09 0.10 0.09 0.10 0.10 0.09 0.10 0.10 0.10 0.10 0.10 0.11 0.12 0.13 0.14 0.13 0.15 0.17 0.20 0.21 0.21 0.21 0.22 0.23 0.23 0.22 0.22 0.22 0.22 0.22 0.22 0.22 0.21 0.20 0.20 0.19 0.18 0.16 0.17 0.17
0.07 0.07 0.08 0.09 0.09 0.10 0.10 0.10 0.09 0.09 0.10 0.10 0.10 0.09 0.10 0.11 0.11 0.12 0.12 0.12 0.14 0.18 0.19 0.20 0.20 0.20 0.21 0.21 0.20 0.20 0.21 0.21 0.21 0.20 0.20 0.19 0.19 0.18 0.17 0.17 0.15 0.14 0.15 0.16
0.07 0.08 0.08 0.09 0.09 0.09 0.10 0.10 0.10 0.10 0.10 0.10 0.10 0.10 0.10 0.10 0.11 0.12 0.13 0.13 0.15 0.17 0.17 0.18 0.19 0.20 0.20 0.19 0.19 0.18 0.19 0.19 0.19 0.19 0.19 0.19 0.18 0.17 0.17 0.16 0.14 0.14 0.14 0.15
0.08 0.09 0.09 0.09 0.09 0.09 0.09 0.09 0.09 0.10 0.10 0.10 0.10 0.09 0.09 0.10 0.10 0.10 0.10 0.13 0.15 0.17 0.17 0.17 0.18 0.20 0.19 0.18 0.18 0.18 0.18 0.18 0.18 0.18 0.18 0.17 0.17 0.16 0.16 0.15 0.15 0.16 0.15 0.15
0.09 0.09 0.09 0.10 0.10 0.09 0.08 0.09 0.09 0.10 0.10 0.10 0.10 0.10 0.09 0.09 0.09 0.11 0.12 0.13 0.14 0.15 0.15 0.17 0.17 0.17 0.17 0.17 0.17 0.17 0.17 0.17 0.17 0.17 0.17 0.17 0.16 0.15 0.14 0.15 0.15 0.16 0.15 0.14
0.09 0.09 0.10 0.09 0.09 0.09 0.09 0.09 0.09 0.09 0.09 0.10 0.10 0.10 0.10 0.10 0.09 0.10 0.11 0.12 0.13 0.13 0.13 0.15 0.15 0.14 0.14 0.15 0.16 0.16 0.16 0.16 0.16 0.15 0.15 0.14 0.14 0.13 0.14 0.15 0.15 0.15 0.15 0.14
0.09 0.09 0.10 0.10 0.10 0.10 0.10 0.10 0.09 0.09 0.09 0.09 0.09 0.10 0.09 0.09 0.10 0.10 0.10 0.11 0.11 0.12 0.12 0.12 0.13 0.13 0.13 0.13 0.13 0.14 0.15 0.15 0.15 0.14 0.13 0.14 0.14 0.14 0.14 0.14 0.14 0.14 0.14 0.14
0.09 0.10 0.11 0.10 0.10 0.11 0.11 0.10 0.09 0.09 0.09 0.09 0.09 0.09 0.09 0.09 0.09 0.09 0.10 0.10 0.10 0.10 0.11 0.11 0.12 0.12 0.12 0.12 0.12 0.12 0.13 0.14 0.14 0.14 0.14 0.14 0.14 0.14 0.14 0.14 0.14 0.14 0.14 0.15
Wind_Speed
12 14 9 7 9 10 12 14 16 17 16 18 19 21 21 22 23 22 22 22 22 22 23 23 24 25 27 28 29 29 30 30 30 30 29 29 29 29 30 30 31 32 32 33
10 7 4 6 9 9 11 13 14 15 17 18 20 20 21 22 22 23 21 22 22 23 24 25 25 26 27 29 29 29 30 30 29 29 29 28 28 29 29 29 29 30 31 32
9 9 6 7 11 12 14 15 16 16 18 19 21 21 23 23 22 21 22 23 24 25 25 26 26 25 25 26 27 29 30 30 30 29 29 28 28 28 28 29 29 29 30 31
8 10 7 5 9 10 12 13 14 17 20 22 24 24 26 23 22 24 26 27 29 29 29 28 27 27 26 24 25 27 29 30 30 30 29 29 28 28 28 28 28 28 29 30
8 8 7 7 10 12 11 14 13 16 21 24 25 27 26 24 26 28 30 30 31 32 32 31 29 28 28 27 26 26 27 29 29 29 29 29 28 28 28 28 28 28 29 29
9 7 6 7 12 15 12 11 10 17 21 24 27 27 28 29 30 32 32 32 33 33 34 34 33 31 29 29 29 28 29 28 28 28 28 28 28 28 27 27 27 28 28 28
9 9 9 10 14 15 10 12 18 19 21 22 23 27 32 32 32 33 33 34 34 34 35 35 36 36 34 32 30 31 30 29 28 28 27 27 27 27 27 27 27 27 27 27
9 9 10 12 16 14 17 21 23 22 23 25 26 27 28 28 29 31 32 34 35 37 36 36 36 37 36 35 33 32 32 31 30 29 28 27 26 26 26 26 26 26 26 26
7 10 13 16 19 20 21 24 24 25 26 26 26 26 26 25 25 28 30 31 33 36 38 38 37 37 36 36 34 33 32 32 31 30 29 27 26 26 26 25 25 25 25 24
12 14 16 19 21 22 25 26 25 24 25 25 25 26 23 24 26 27 28 29 30 31 33 34 35 36 36 34 34 33 32 32 31 30 29 28 26 25 25 25 25 24 24 23
16 19 20 19 22 24 26 26 25 24 24 24 24 25 25 26 26 26 25 26 25 25 26 29 30 32 33 32 32 32 31 31 31 30 29 28 26 25 24 24 24 23 23 22
16 18 19 22 24 26 26 25 25 25 24 25 24 24 24 24 24 23 24 23 22 21 21 23 27 30 31 32 32 32 31 30 30 29 28 27 26 24 23 23 22 22 21 20
18 20 22 25 25 26 25 26 25 25 26 25 25 24 24 23 22 23 22 21 19 20 20 21 24 27 30 31 32 32 31 31 30 29 27 26 25 24 23 22 21 20 20 19
19 22 24 24 25 26 25 26 26 25 24 24 24 24 23 23 22 21 20 19 19 19 18 18 19 22 27 30 31 31 31 30 29 28 27 26 25 23 22 21 20 19 18 17
20 24 25 26 25 26 25 26 26 25 25 25 24 23 23 23 22 21 20 19 18 17 16 15 15 16 18 23 27 29 29 29 28 27 26 25 23 22 21 20 19 18 17 16
24 26 25 24 24 25 25 26 25 26 26 26 25 24 24 23 21 20 19 18 17 16 15 14 13 12 11 15 20 24 26 27 26 25 25 24 23 21 20 19 18 17 16 15
26 26 24 23 24 24 25 26 26 26 26 25 25 25 24 22 21 19 18 18 17 16 15 13 12 11 10 10 14 19 22 24 24 23 23 22 21 20 19 18 17 16 16 14
26 25 23 23 24 25 26 27 27 27 26 25 25 24 23 22 20 19 18 17 15 14 13 12 11 10 9 10 11 14 18 20 21 21 21 21 20 19 18 18 17 16 15 14
26 24 24 24 24 25 26 27 27 27 26 25 24 23 22 21 20 19 17 15 14 14 13 12 11 10 9 9 10 12 14 16 18 19 19 20 19 18 18 17 16 16 15 14
25 24 24 24 25 26 26 26 27 26 25 24 23 23 22 21 20 19 17 15 14 14 14 13 13 12 11 11 11 12 13 14 15 16 17 17 17 17 17 16 16 15 15 14
25 24 24 25 26 26 26 26 25 25 24 23 23 23 22 22 21 19 17 15 16 15 14 15 15 14 14 14 14 14 14 15 16 16 16 16 16 16 16 16 16 16 15 15
24 24 25 25 25 26 25 25 24 24 23 23 23 23 23 22 21 19 16 16 16 14 14 15 15 15 14 15 15 15 15 16 16 16 16 16 16 16 16 15 15 15 15 15
24 24 25 25 25 25 25 24 24 23 23 23 23 23 23 22 21 18 16 15 13 11 12 14 16 15 14 14 15 16 17 17 17 17 17 17 17 17 17 16 16 16 16 16
24 24 24 25 25 24 24 24 24 23 23 23 23 23 24 23 21 18 17 16 14 11 10 9 13 15 16 17 17 18 18 19 19 19 19 18 18 18 17 17 17 16 16 17
24 24 24 24 24 23 23 24 24 23 23 23 24 23 24 24 22 20 18 17 16 15 15 15 15 16 17 18 18 19 19 20 20 20 20 20 19 19 18 18 18 18 17 17
24 24 24 24 23 23 24 24 23 23 23 24 24 24 25 25 22 20 18 17 16 17 17 18 18 18 19 19 19 19 20 20 21 21 20 20 19 19 19 19 19 19 19 19
23 24 23 24 24 24 24 24 24 24 24 24 24 25 26 25 23 21 18 17 16 16 16 17 18 18 19 19 19 20 20 20 20 20 20 19 19 19 19 18 18 18 19 19
Wind_Direction
300 284 272 288 285 275 256 252 248 247 244 256 266 268 267 266 265 264 260 255 253 253 253 254 255 255 254 253 252 249 247 247 248 249 252 255 257 260 262 263 264 265 266 266
357 353 277 292 300 285 274 271 253 248 251 256 267 268 271 272 268 265 257 256 256 256 256 257 259 259 259 255 251 248 246 246 247 249 252 255 258 261 263 264 265 266 267 268
354 353 322 324 303 289 272 262 256 253 256 267 274 276 276 273 270 263 258 261 262 260 260 260 260 261 260 257 251 247 246 246 247 249 252 255 258 261 263 265 267 269 270 270
349 356 355 307 325 306 295 271 257 257 264 269 270 270 275 264 261 268 266 266 265 263 261 261 260 258 258 257 253 248 246 246 247 249 251 255 258 261 264 266 268 270 272 273
7 2 346 347 340 331 314 288 272 273 278 278 276 272 269 259 270 272 270 268 267 264 262 259 259 257 256 255 253 250 248 247 247 248 251 254 258 261 264 266 268 271 273 275
354 359 336 330 332 330 323 307 292 301 291 288 287 277 268 271 274 273 271 269 269 266 263 258 257 254 254 254 252 250 249 248 248 249 251 254 257 260 263 266 269 272 274 276
340 336 324 330 335 337 343 312 310 309 303 298 292 281 277 277 275 274 272 271 270 267 264 260 255 253 252 253 253 251 248 248 248 249 251 254 256 259 262 266 270 272 275 277
344 344 326 328 336 333 315 313 311 307 305 302 298 293 285 280 278 279 277 273 271 267 264 261 256 251 250 250 252 250 248 246 246 247 250 253 256 259 261 265 269 273 276 278
317 316 319 322 323 323 322 318 311 307 305 302 300 298 291 286 286 285 283 279 276 270 264 259 254 249 249 249 249 248 245 246 244 244 247 251 255 259 261 264 268 272 275 277
326 320 314 317 322 321 321 319 317 311 305 302 300 302 299 293 291 290 289 286 282 275 267 257 252 248 246 247 246 245 244 243 241 242 245 249 253 257 261 262 266 269 273 276
312 316 318 318 321 322 322 321 318 316 313 307 303 302 298 295 293 292 292 291 287 279 271 258 251 247 245 244 243 242 242 240 239 241 243 246 250 254 259 262 264 267 271 275
313 318 320 319 322 324 324 322 319 316 314 314 309 304 302 300 297 295 293 293 291 286 277 263 253 249 246 243 241 239 239 238 237 239 240 244 247 251 256 261 264 266 270 272
315 318 318 319 322 325 325 323 322 320 316 312 311 309 304 302 300 299 296 294 292 289 283 273 262 252 247 243 240 238 236 235 235 236 238 241 243 247 251 258 262 265 267 270
319 321 322 323 322 323 323 323 323 321 319 317 313 311 308 304 301 297 295 293 293 291 287 281 272 260 249 244 238 234 232 232 233 234 236 237 240 243 248 253 258 262 264 267
322 322 319 320 322 323 324 326 326 324 323 321 319 315 312 308 303 298 295 293 291 290 289 286 280 272 257 242 232 229 229 229 230 231 232 233 236 240 245 249 254 259 260 263
322 323 322 321 321 324 326 327 326 326 326 324 322 319 315 310 305 299 295 291 287 284 286 287 283 275 265 241 228 224 224 223 224 226 227 229 232 236 241 246 250 255 257 259
325 325 323 322 324 325 326 326 326 326 325 324 323 321 318 314 309 303 297 291 284 280 276 279 279 270 259 244 227 220 219 218 218 222 224 226 229 234 238 242 247 250 252 254
323 322 321 321 322 324 326 326 327 326 325 324 324 323 321 319 313 306 300 293 284 277 273 269 267 261 251 238 226 218 215 216 217 220 223 225 228 232 235 240 243 246 247 247
324 323 322 323 324 324 325 325 326 326 325 325 325 324 322 320 317 311 302 292 283 276 270 264 256 249 242 233 222 215 212 214 218 220 222 224 228 231 234 238 241 242 242 242
324 323 323 323 324 324 324 325 326 327 326 326 326 326 325 322 319 314 307 295 283 273 267 256 250 243 238 233 226 221 218 216 217 219 222 224 227 229 232 235 238 239 238 238
324 323 323 323 323 324 325 325 326 327 327 328 327 327 326 324 321 315 306 298 290 274 265 252 247 242 239 237 233 231 227 224 223 223 224 224 227 230 231 235 237 237 237 238
324 324 324 324 324 324 325 326 326 326 327 327 328 327 326 324 321 318 309 304 295 277 263 249 241 243 240 237 235 233 232 230 228 227 226 228 230 231 233 235 236 236 237 240
324 324 324 325 325 325 325 326 326 326 327 327 328 328 327 324 320 315 306 306 302 295 265 243 245 234 238 241 239 237 234 233 232 231 231 232 233 235 236 237 237 238 240 244
324 325 325 326 326 327 327 328 327 326 326 326 327 327 328 326 320 312 303 295 291 280 274 255 245 242 243 247 246 242 238 235 234 234 234 235 237 238 238 238 239 242 245 249
326 326 326 327 327 327 327 328 327 327 327 327 328 327 328 327 320 312 304 292 283 273 266 264 258 253 250 250 247 242 239 237 235 235 236 236 237 238 238 240 243 246 250 254
329 329 328 328 327 327 327 328 327 327 327 327 328 328 328 327 323 315 306 296 284 274 267 263 260 256 253 250 246 242 240 237 236 236 235 235 235 236 238 242 245 249 254 259
331 332 331 331 330 329 328 329 328 327 326 326 326 329 330 329 325 319 310 300 289 279 271 266 260 256 252 248 244 240 238 236 233 231 231 233 235 237 239 242 246 251 256 260